FW0600 Weather Reports


time (UTC)temp
C
wind
direction
speed
KPH
gust
KPH
rain 1hr
cm
rain 24hr
cm
rain mn
cm
humidity
%
barometer
mb
20260503201540 16 145 0.0 1.6 0.00 0.00 0.00 94 1015.9
20260503200044 16 119 0.0 1.6 0.00 0.00 0.00 95 1015.7
20260503194541 16 107 0.0 0.0 0.00 0.00 0.00 94 1015.5
20260503193041 16 107 0.0 0.0 0.00 0.00 0.00 94 1015.5
20260503191536 16 107 0.0 0.0 0.00 0.00 0.00 94 1015.5
20260503190035 16 107 0.0 0.0 0.00 0.00 0.00 94 1015.5
20260503184535 16 107 0.0 0.0 0.00 0.00 0.00 94 1015.6
20260503183050 16 107 0.0 0.0 0.00 0.00 0.00 94 1015.6
20260503181533 16 107 0.0 0.0 0.00 0.00 0.00 94 1015.5
20260503180033 15 107 0.0 0.0 0.00 0.00 0.00 94 1015.5
20260503174531 15 107 0.0 0.0 0.00 0.00 0.00 93 1015.6
20260503173029 15 107 0.0 0.0 0.00 0.00 0.00 92 1015.7
20260503171527 15 107 0.0 0.0 0.00 0.00 0.00 92 1015.8
20260503081611 21 321 3.2 12.9 0.00 0.00 0.00 81 1017.9
20260503071544 22 290 1.6 8.0 0.00 0.00 0.00 78 1017.9
20260503054545 23 105 3.2 12.9 0.00 0.00 0.00 71 1018.1
20260503053034 24 276 3.2 14.5 0.00 0.00 0.00 70 1018.4
20260503051530 24 278 1.6 11.3 0.00 0.00 0.00 69 1018.4
20260503050036 24 294 3.2 12.9 0.00 0.00 0.00 70 1018.5
20260503044526 24 319 3.2 8.0 0.00 0.00 0.00 68 1018.6
20260503043026 23 266 3.2 12.9 0.00 0.00 0.00 68 1018.6
20260503041525 24 277 4.8 17.7 0.00 0.00 0.00 66 1018.8
20260503040031 24 273 3.2 11.3 0.00 0.00 0.00 65 1018.9
20260503034534 24 283 1.6 11.3 0.00 0.00 0.00 65 1019.0
20260503033027 25 59 3.2 8.0 0.00 0.00 0.00 64 1019.0
20260503031519 25 325 3.2 11.3 0.00 0.00 0.00 62 1019.2
20260503030017 25 302 1.6 9.7 0.00 0.00 0.00 60 1019.5
20260503024514 25 319 0.0 6.4 0.00 0.00 0.00 62 1019.8
20260503023010 26 287 3.2 9.7 0.00 0.00 0.00 59 1019.8
20260503021509 25 297 1.6 9.7 0.00 0.00 0.00 60 1020.1
20260503020105 25 296 1.6 11.3 0.00 0.00 0.00 56 1020.5
20260503014503 25 277 3.2 14.5 0.00 0.00 0.00 55 1020.7
20260503013100 25 53 1.6 12.9 0.00 0.00 0.00 58 1020.7
20260503011603 24 29 0.0 9.7 0.00 0.00 0.00 60 1021.3
20260503010053 24 298 1.6 12.9 0.00 0.00 0.00 61 1021.6
20260503004551 23 293 3.2 14.5 0.00 0.00 0.00 61 1021.6
20260503003049 24 314 1.6 11.3 0.00 0.00 0.00 61 1021.8
20260503001557 24 284 0.0 6.4 0.00 0.00 0.00 66 1021.9
20260503000044 23 129 0.0 3.2 0.00 0.00 0.00 70 1022.0
20260502234538 23 323 0.0 4.8 0.00 0.00 0.00 71 1022.3
20260502233042 22 334 1.6 8.0 0.00 0.00 0.00 71 1022.5
20260502231540 22 326 0.0 3.2 0.00 0.00 0.00 76 1022.8
20260502230025 21 145 0.0 4.8 0.00 0.00 0.00 79 1022.7
20260502224521 20 142 0.0 3.2 0.00 0.00 0.00 84 1022.9
20260502223017 18 135 0.0 4.8 0.00 0.00 0.00 90 1022.8
20260502221515 17 40 0.0 1.6 0.00 0.00 0.00 93 1022.7
20260502220013 17 52 0.0 0.0 0.00 0.00 0.00 94 1022.7
20260502214507 16 51 0.0 1.6 0.00 0.00 0.00 94 1022.6
20260502213004 16 198 0.0 0.0 0.00 0.00 0.00 94 1022.2
20260502211608 15 227 0.0 1.6 0.00 0.00 0.00 93 1022.2
20260502210108 15 97 0.0 0.0 0.00 0.00 0.00 92 1022.2
20260502204554 15 97 0.0 0.0 0.00 0.00 0.00 91 1022.0
20260502203058 15 97 0.0 0.0 0.00 0.00 0.00 92 1022.0